N52LM KBUR-KMFR

Flight info

Callsign N52LM
Flight time 1h 36m
Altitude 43000
Route OROSZ2 CSTRO RBL
Aircraft HDJT/L-SABDGRWY/H

Departure

Time 2026-04-25 20:10
Airport Hollywood Burbank/Bob Hope Airport (KBUR)

Arrival

Time 2026-04-25 21:46
Airport Rogue Valley International-Medford Airport (KMFR)
Time Latitude Longitude Altitude Speed Heading
2026-04-25 19:55 34.19981 -118.35966 694 ft 0 kts 74°
2026-04-25 20:04 34.19982 -118.35961 695 ft 4 kts 74°
2026-04-25 20:04 34.19976 -118.35902 698 ft 10 kts 111°
2026-04-25 20:05 34.19962 -118.35818 693 ft 8 kts 37°
2026-04-25 20:05 34.20030 -118.35827 695 ft 12 kts 347°
2026-04-25 20:05 34.20102 -118.35847 698 ft 10 kts 347°
2026-04-25 20:05 34.20204 -118.35876 705 ft 20 kts 347°
2026-04-25 20:06 34.20341 -118.35914 712 ft 18 kts 347°
2026-04-25 20:06 34.20457 -118.35946 719 ft 18 kts 347°
2026-04-25 20:06 34.20580 -118.35979 728 ft 18 kts 347°
2026-04-25 20:06 34.20710 -118.36015 738 ft 19 kts 347°
2026-04-25 20:07 34.20829 -118.36048 746 ft 17 kts 347°
2026-04-25 20:07 34.20947 -118.36080 756 ft 18 kts 347°
2026-04-25 20:07 34.21071 -118.36113 765 ft 18 kts 347°
2026-04-25 20:07 34.21167 -118.36139 769 ft 8 kts 348°
2026-04-25 20:08 34.21176 -118.36141 769 ft 0 kts 356°
2026-04-25 20:08 34.21186 -118.36138 769 ft 3 kts 24°
2026-04-25 20:08 34.21195 -118.36132 769 ft 4 kts 30°
2026-04-25 20:09 34.21220 -118.36064 769 ft 10 kts 106°
2026-04-25 20:09 34.21169 -118.36029 767 ft 9 kts 166°
2026-04-25 20:09 34.20867 -118.35946 746 ft 92 kts 167°
2026-04-25 20:09 34.20015 -118.35728 907 ft 141 kts 175°
2026-04-25 20:10 34.18985 -118.35935 1313 ft 164 kts 207°
2026-04-25 20:10 34.18059 -118.36872 1914 ft 184 kts 227°
2026-04-25 20:10 34.17180 -118.38069 2568 ft 197 kts 225°
2026-04-25 20:10 34.16194 -118.39301 3251 ft 209 kts 223°
2026-04-25 20:11 34.15147 -118.40568 4058 ft 215 kts 221°
2026-04-25 20:11 34.14098 -118.41847 4902 ft 220 kts 222°
2026-04-25 20:11 34.13008 -118.43143 5831 ft 219 kts 223°
2026-04-25 20:11 34.11875 -118.44387 6674 ft 220 kts 222°
2026-04-25 20:12 34.10723 -118.45580 7530 ft 218 kts 222°
2026-04-25 20:12 34.09557 -118.46747 8356 ft 219 kts 221°
2026-04-25 20:12 34.08373 -118.47933 9120 ft 223 kts 221°
2026-04-25 20:12 34.07985 -118.48361 9394 ft 222 kts 229°
2026-04-25 20:13 34.07375 -118.51238 10761 ft 225 kts 281°
2026-04-25 20:13 34.08202 -118.52885 11489 ft 244 kts 311°
2026-04-25 20:13 34.09750 -118.53866 12232 ft 259 kts 334°
2026-04-25 20:13 34.11521 -118.54452 12900 ft 269 kts 338°
2026-04-25 20:14 34.13442 -118.55010 13003 ft 299 kts 339°
2026-04-25 20:14 34.15502 -118.55605 13573 ft 305 kts 339°
2026-04-25 20:14 34.17541 -118.56161 14292 ft 302 kts 338°
2026-04-25 20:14 34.19509 -118.56923 15024 ft 294 kts 329°
2026-04-25 20:15 34.21393 -118.57866 15759 ft 291 kts 329°
2026-04-25 20:15 34.23293 -118.58729 16515 ft 293 kts 333°
2026-04-25 20:15 34.25234 -118.59488 17277 ft 293 kts 334°
2026-04-25 20:15 34.27170 -118.60261 18062 ft 292 kts 333°
2026-04-25 20:16 34.29075 -118.61078 18774 ft 288 kts 330°
2026-04-25 20:16 34.30886 -118.62065 19474 ft 284 kts 324°
2026-04-25 20:16 34.32661 -118.63113 20188 ft 282 kts 325°
2026-04-25 20:16 34.34468 -118.64082 20918 ft 285 kts 327°
2026-04-25 20:17 34.36301 -118.65012 21664 ft 286 kts 327°
2026-04-25 20:17 34.38124 -118.65961 22446 ft 285 kts 325°
2026-04-25 20:17 34.39941 -118.66944 23263 ft 286 kts 324°
2026-04-25 20:17 34.41742 -118.67917 23975 ft 287 kts 324°
2026-04-25 20:18 34.43573 -118.68886 24658 ft 287 kts 324°
2026-04-25 20:18 34.45405 -118.69857 25352 ft 286 kts 324°
2026-04-25 20:18 34.47215 -118.70824 26074 ft 283 kts 323°
2026-04-25 20:18 34.49006 -118.71784 26819 ft 280 kts 323°
2026-04-25 20:19 34.50779 -118.72721 27575 ft 275 kts 323°
2026-04-25 20:19 34.52514 -118.73641 28344 ft 269 kts 322°
2026-04-25 20:19 34.54221 -118.74560 28888 ft 272 kts 321°
2026-04-25 20:19 34.55996 -118.75539 29173 ft 287 kts 322°
2026-04-25 20:20 34.57868 -118.76537 29503 ft 300 kts 324°
2026-04-25 20:20 34.59828 -118.77566 29814 ft 312 kts 324°
2026-04-25 20:20 34.61848 -118.78632 30096 ft 322 kts 324°
2026-04-25 20:20 34.63918 -118.79742 30358 ft 329 kts 324°
2026-04-25 20:21 34.66027 -118.80889 30671 ft 335 kts 324°
2026-04-25 20:21 34.68176 -118.82049 31001 ft 340 kts 325°
2026-04-25 20:21 34.70367 -118.83216 31282 ft 347 kts 325°
2026-04-25 20:21 34.72552 -118.84379 31701 ft 347 kts 325°
2026-04-25 20:22 34.74759 -118.85556 32160 ft 346 kts 324°
2026-04-25 20:22 34.75502 -118.85957 32312 ft 345 kts 324°
2026-04-25 20:22 34.79145 -118.87922 33123 ft 344 kts 325°
2026-04-25 20:22 34.81379 -118.89014 33540 ft 346 kts 326°
2026-04-25 20:23 34.83557 -118.90212 33949 ft 341 kts 322°
2026-04-25 20:23 34.85690 -118.91472 34333 ft 341 kts 323°
2026-04-25 20:23 34.87130 -118.92266 34560 ft 343 kts 324°
2026-04-25 20:23 34.89329 -118.93407 34929 ft 342 kts 326°
2026-04-25 20:24 34.91516 -118.94557 35284 ft 340 kts 324°
2026-04-25 20:24 34.93663 -118.95729 35713 ft 337 kts 323°
2026-04-25 20:24 34.95811 -118.96909 35988 ft 340 kts 323°
2026-04-25 20:24 34.97976 -118.98073 36337 ft 339 kts 324°
2026-04-25 20:25 35.00134 -118.99230 36680 ft 339 kts 324°
2026-04-25 20:25 35.02982 -119.00770 37135 ft 337 kts 324°
2026-04-25 20:25 35.04428 -119.01551 37357 ft 336 kts 323°
2026-04-25 20:25 35.06541 -119.02703 37695 ft 336 kts 323°
2026-04-25 20:26 35.08698 -119.03873 38041 ft 335 kts 323°
2026-04-25 20:26 35.10805 -119.05012 38364 ft 334 kts 323°
2026-04-25 20:26 35.12937 -119.06167 38661 ft 334 kts 323°
2026-04-25 20:26 35.15056 -119.07317 38908 ft 333 kts 323°
2026-04-25 20:27 35.17172 -119.08467 39147 ft 333 kts 323°
2026-04-25 20:27 35.19289 -119.09617 39397 ft 333 kts 323°
2026-04-25 20:27 35.21411 -119.10771 39623 ft 333 kts 323°
2026-04-25 20:27 35.23531 -119.11923 39860 ft 333 kts 323°
2026-04-25 20:28 35.25643 -119.13072 40090 ft 332 kts 323°
2026-04-25 20:28 35.27754 -119.14222 40317 ft 332 kts 323°
2026-04-25 20:28 35.29865 -119.15372 40547 ft 332 kts 323°
2026-04-25 20:28 35.31975 -119.16522 40774 ft 331 kts 323°
2026-04-25 20:29 35.34080 -119.17670 40991 ft 331 kts 323°
2026-04-25 20:29 35.36178 -119.18816 41210 ft 331 kts 323°
2026-04-25 20:29 35.38283 -119.19965 41444 ft 330 kts 324°
2026-04-25 20:29 35.40357 -119.21099 41640 ft 330 kts 324°
2026-04-25 20:30 35.42455 -119.22245 41848 ft 330 kts 324°
2026-04-25 20:30 35.44555 -119.23394 42055 ft 330 kts 323°
2026-04-25 20:30 35.46607 -119.24611 42255 ft 327 kts 321°
2026-04-25 20:30 35.48645 -119.25847 42449 ft 327 kts 322°
2026-04-25 20:31 35.50689 -119.27078 42640 ft 327 kts 322°
2026-04-25 20:31 35.52738 -119.28309 42836 ft 327 kts 322°
2026-04-25 20:31 35.56859 -119.30806 42956 ft 336 kts 323°
2026-04-25 20:32 35.61134 -119.33384 42941 ft 347 kts 323°
2026-04-25 20:32 35.65524 -119.36040 42943 ft 356 kts 323°
2026-04-25 20:33 35.70018 -119.38760 42941 ft 364 kts 323°
2026-04-25 20:33 35.73825 -119.41068 42942 ft 369 kts 323°
2026-04-25 20:34 35.79245 -119.44359 42943 ft 377 kts 324°
2026-04-25 20:34 35.83976 -119.47234 42945 ft 381 kts 324°
2026-04-25 20:35 35.88769 -119.50153 42954 ft 385 kts 324°
2026-04-25 20:35 35.93596 -119.53095 42952 ft 388 kts 324°
2026-04-25 20:36 35.98466 -119.56068 42942 ft 392 kts 324°
2026-04-25 20:36 36.03367 -119.59063 42940 ft 394 kts 324°
2026-04-25 20:37 36.08289 -119.62077 42941 ft 396 kts 324°
2026-04-25 20:37 36.13238 -119.65111 42965 ft 397 kts 326°
2026-04-25 20:38 36.18177 -119.68143 42943 ft 399 kts 325°
2026-04-25 20:38 36.23155 -119.71203 42943 ft 400 kts 325°
2026-04-25 20:39 36.28142 -119.74274 42944 ft 400 kts 325°
2026-04-25 20:39 36.32295 -119.76834 42942 ft 401 kts 326°
2026-04-25 20:40 36.38141 -119.80443 42943 ft 401 kts 326°
2026-04-25 20:40 36.43150 -119.83541 42940 ft 402 kts 326°
2026-04-25 20:41 36.48159 -119.86643 42937 ft 402 kts 326°
2026-04-25 20:41 36.53147 -119.89735 42939 ft 403 kts 326°
2026-04-25 20:42 36.58168 -119.92853 42941 ft 403 kts 326°
2026-04-25 20:42 36.63195 -119.95981 42941 ft 403 kts 326°
2026-04-25 20:43 36.68213 -119.99106 42941 ft 403 kts 326°
2026-04-25 20:43 36.73235 -120.02238 42946 ft 403 kts 326°
2026-04-25 20:44 36.78249 -120.05371 42943 ft 403 kts 326°
2026-04-25 20:44 36.83269 -120.08511 42945 ft 403 kts 326°
2026-04-25 20:45 36.88297 -120.11662 42950 ft 404 kts 326°
2026-04-25 20:45 36.93322 -120.14815 42951 ft 404 kts 326°
2026-04-25 20:46 36.98319 -120.17955 42951 ft 404 kts 326°
2026-04-25 20:46 37.03347 -120.21119 42951 ft 404 kts 326°
2026-04-25 20:47 37.08379 -120.24292 42948 ft 405 kts 326°
2026-04-25 20:47 37.13414 -120.27470 42946 ft 405 kts 326°
2026-04-25 20:48 37.18451 -120.30653 42941 ft 405 kts 326°
2026-04-25 20:48 37.23449 -120.33818 42939 ft 405 kts 326°
2026-04-25 20:49 37.28488 -120.37013 42932 ft 405 kts 326°
2026-04-25 20:49 37.33515 -120.40205 42936 ft 405 kts 327°
2026-04-25 20:50 37.38557 -120.43412 42935 ft 405 kts 327°
2026-04-25 20:50 37.43591 -120.46619 42935 ft 405 kts 327°
2026-04-25 20:51 37.48623 -120.49828 42932 ft 405 kts 327°
2026-04-25 20:51 37.53654 -120.53043 42932 ft 405 kts 327°
2026-04-25 20:52 37.57831 -120.55716 42933 ft 405 kts 327°
2026-04-25 20:52 37.63676 -120.59460 42930 ft 405 kts 327°
2026-04-25 20:53 37.68698 -120.62683 42928 ft 405 kts 327°
2026-04-25 20:53 37.73717 -120.65910 42928 ft 405 kts 327°
2026-04-25 20:54 37.78738 -120.69143 42930 ft 405 kts 327°
2026-04-25 20:54 37.83766 -120.72384 42928 ft 405 kts 327°
2026-04-25 20:55 37.88790 -120.75628 42930 ft 405 kts 327°
2026-04-25 20:55 37.93807 -120.78874 42931 ft 405 kts 327°
2026-04-25 20:56 37.98833 -120.82129 42931 ft 405 kts 327°
2026-04-25 20:56 38.03846 -120.85382 42931 ft 405 kts 327°
2026-04-25 20:57 38.08836 -120.88624 42930 ft 405 kts 327°
2026-04-25 20:57 38.13852 -120.91888 42930 ft 405 kts 327°
2026-04-25 20:58 38.18875 -120.95162 42929 ft 405 kts 327°
2026-04-25 20:58 38.23888 -120.98435 42928 ft 405 kts 327°
2026-04-25 20:59 38.28903 -121.01713 42921 ft 405 kts 327°
2026-04-25 20:59 38.33913 -121.04994 42919 ft 405 kts 327°
2026-04-25 21:00 38.37236 -121.07173 42915 ft 405 kts 327°
2026-04-25 21:01 38.46451 -121.13227 42913 ft 405 kts 327°
2026-04-25 21:01 38.51457 -121.16524 42912 ft 405 kts 327°
2026-04-25 21:02 38.56463 -121.19825 42912 ft 405 kts 327°
2026-04-25 21:02 38.61433 -121.23108 42912 ft 405 kts 327°
2026-04-25 21:03 38.66436 -121.26418 42924 ft 404 kts 328°
2026-04-25 21:03 38.71445 -121.29737 42916 ft 404 kts 328°
2026-04-25 21:04 38.75600 -121.32495 42916 ft 404 kts 328°
2026-04-25 21:04 38.80600 -121.35817 42912 ft 404 kts 328°
2026-04-25 21:05 38.85596 -121.39142 42913 ft 404 kts 328°
2026-04-25 21:05 38.90589 -121.42471 42913 ft 404 kts 328°
2026-04-25 21:06 38.95580 -121.45805 42916 ft 404 kts 328°
2026-04-25 21:06 39.00574 -121.49143 42909 ft 404 kts 328°
2026-04-25 21:07 39.05564 -121.52487 42899 ft 404 kts 328°
2026-04-25 21:07 39.10546 -121.55829 42902 ft 404 kts 328°
2026-04-25 21:08 39.15504 -121.59161 42908 ft 404 kts 328°
2026-04-25 21:08 39.20492 -121.62518 42900 ft 404 kts 328°
2026-04-25 21:09 39.27966 -121.67560 42906 ft 404 kts 328°
2026-04-25 21:09 39.32947 -121.70926 42907 ft 403 kts 328°
2026-04-25 21:10 39.37912 -121.74288 42904 ft 403 kts 328°
2026-04-25 21:10 39.42880 -121.77656 42902 ft 403 kts 328°
2026-04-25 21:11 39.47839 -121.81023 42899 ft 402 kts 328°
2026-04-25 21:11 39.52793 -121.84393 42899 ft 402 kts 328°
2026-04-25 21:12 39.57746 -121.87768 42907 ft 402 kts 328°
2026-04-25 21:12 39.61862 -121.90576 42893 ft 402 kts 328°
2026-04-25 21:13 39.67608 -121.94504 42890 ft 401 kts 328°
2026-04-25 21:13 39.72558 -121.97893 42882 ft 401 kts 328°
2026-04-25 21:14 39.77492 -122.01276 42881 ft 401 kts 328°
2026-04-25 21:14 39.82418 -122.04661 42881 ft 400 kts 328°
2026-04-25 21:15 39.87346 -122.08051 42875 ft 400 kts 328°
2026-04-25 21:15 39.92272 -122.11446 42878 ft 400 kts 328°
2026-04-25 21:16 39.97202 -122.14849 42878 ft 400 kts 328°
2026-04-25 21:16 40.02120 -122.18249 42873 ft 400 kts 328°
2026-04-25 21:17 40.07033 -122.21651 42873 ft 400 kts 327°
2026-04-25 21:17 40.12199 -122.24426 42869 ft 406 kts 341°
2026-04-25 21:18 40.17641 -122.26250 42867 ft 406 kts 341°
2026-04-25 21:18 40.23114 -122.28121 42866 ft 407 kts 341°
2026-04-25 21:19 40.28597 -122.29977 42867 ft 407 kts 341°
2026-04-25 21:19 40.34078 -122.31846 42853 ft 407 kts 341°
2026-04-25 21:20 40.38653 -122.33407 42567 ft 413 kts 341°
2026-04-25 21:20 40.42379 -122.34680 41815 ft 416 kts 341°
2026-04-25 21:20 40.45174 -122.35633 41267 ft 414 kts 341°
2026-04-25 21:21 40.47960 -122.36584 40724 ft 414 kts 341°
2026-04-25 21:21 40.50747 -122.37540 40181 ft 414 kts 341°
2026-04-25 21:21 40.53530 -122.38494 39635 ft 414 kts 340°
2026-04-25 21:21 40.56321 -122.39451 39101 ft 414 kts 340°
2026-04-25 21:22 40.59106 -122.40406 38543 ft 412 kts 340°
2026-04-25 21:22 40.61880 -122.41359 37941 ft 412 kts 340°
2026-04-25 21:22 40.64657 -122.42315 37396 ft 413 kts 340°
2026-04-25 21:22 40.67445 -122.43274 36848 ft 414 kts 340°
2026-04-25 21:23 40.70197 -122.44221 36318 ft 414 kts 340°
2026-04-25 21:23 40.72986 -122.45183 35774 ft 414 kts 340°
2026-04-25 21:23 40.75768 -122.46143 35228 ft 413 kts 340°
2026-04-25 21:23 40.78543 -122.47102 34689 ft 412 kts 341°
2026-04-25 21:24 40.81323 -122.48063 34141 ft 413 kts 341°
2026-04-25 21:24 40.84112 -122.49027 33549 ft 414 kts 341°
2026-04-25 21:24 40.86891 -122.49989 33015 ft 413 kts 341°
2026-04-25 21:24 40.89663 -122.50949 32471 ft 412 kts 341°
2026-04-25 21:25 40.92433 -122.51909 31914 ft 407 kts 341°
2026-04-25 21:25 40.95147 -122.52852 31371 ft 401 kts 341°
2026-04-25 21:25 40.97839 -122.53786 30836 ft 398 kts 342°
2026-04-25 21:25 41.00516 -122.54717 30309 ft 396 kts 342°
2026-04-25 21:26 41.03175 -122.55642 29762 ft 393 kts 342°
2026-04-25 21:26 41.05809 -122.56560 29229 ft 390 kts 342°
2026-04-25 21:26 41.08423 -122.57472 28722 ft 387 kts 342°
2026-04-25 21:26 41.11013 -122.58375 28205 ft 383 kts 342°
2026-04-25 21:27 41.13582 -122.59273 27712 ft 381 kts 342°
2026-04-25 21:27 41.16143 -122.60167 27217 ft 379 kts 342°
2026-04-25 21:27 41.18693 -122.61056 26723 ft 377 kts 342°
2026-04-25 21:27 41.21221 -122.61937 26225 ft 375 kts 342°
2026-04-25 21:28 41.23763 -122.62731 25887 ft 374 kts 343°
2026-04-25 21:28 41.26264 -122.63501 25723 ft 373 kts 342°
2026-04-25 21:28 41.28767 -122.64380 24989 ft 367 kts 340°
2026-04-25 21:28 41.31178 -122.65416 24280 ft 361 kts 338°
2026-04-25 21:29 41.33598 -122.66380 23786 ft 364 kts 341°
2026-04-25 21:29 41.36059 -122.67173 23311 ft 364 kts 342°
2026-04-25 21:29 41.38522 -122.67973 22803 ft 363 kts 341°
2026-04-25 21:29 41.40945 -122.68853 22325 ft 360 kts 340°
2026-04-25 21:30 41.43354 -122.69736 21862 ft 358 kts 341°
2026-04-25 21:30 41.45752 -122.70577 21399 ft 354 kts 341°
2026-04-25 21:30 41.48131 -122.71403 20927 ft 352 kts 341°
2026-04-25 21:30 41.49699 -122.71956 20629 ft 351 kts 341°
2026-04-25 21:31 41.52815 -122.73055 20019 ft 347 kts 341°
2026-04-25 21:31 41.55143 -122.73882 19560 ft 345 kts 341°
2026-04-25 21:31 41.57460 -122.74706 19111 ft 343 kts 341°
2026-04-25 21:31 41.59758 -122.75521 18661 ft 341 kts 341°
2026-04-25 21:32 41.62048 -122.76331 18226 ft 338 kts 341°
2026-04-25 21:32 41.64310 -122.77133 17748 ft 335 kts 341°
2026-04-25 21:32 41.66556 -122.77934 17307 ft 334 kts 341°
2026-04-25 21:32 41.68808 -122.78734 17023 ft 333 kts 342°
2026-04-25 21:33 41.71042 -122.79520 16598 ft 331 kts 342°
2026-04-25 21:33 41.73233 -122.80301 16174 ft 330 kts 341°
2026-04-25 21:33 41.75446 -122.81095 15745 ft 328 kts 341°
2026-04-25 21:33 41.77647 -122.81882 15332 ft 326 kts 342°
2026-04-25 21:34 41.79850 -122.82649 14901 ft 327 kts 343°
2026-04-25 21:34 41.82115 -122.83033 14470 ft 330 kts 355°
2026-04-25 21:34 41.84412 -122.82799 14045 ft 333 kts
2026-04-25 21:34 41.86647 -122.81956 13595 ft 335 kts 18°
2026-04-25 21:35 41.88676 -122.80564 13130 ft 319 kts 30°
2026-04-25 21:35 41.90378 -122.78781 12723 ft 304 kts 41°
2026-04-25 21:35 41.91813 -122.76797 12322 ft 289 kts 43°
2026-04-25 21:35 41.93176 -122.74940 11961 ft 277 kts 43°
2026-04-25 21:36 41.94519 -122.73142 11600 ft 267 kts 42°
2026-04-25 21:36 41.95809 -122.71384 11253 ft 261 kts 43°
2026-04-25 21:36 41.97082 -122.69621 10906 ft 276 kts 43°
2026-04-25 21:36 41.98498 -122.67684 10528 ft 301 kts 43°
2026-04-25 21:37 41.99979 -122.65652 10123 ft 304 kts 44°
2026-04-25 21:37 42.00457 -122.64992 9990 ft 303 kts 44°
2026-04-25 21:37 42.03005 -122.61968 9326 ft 278 kts 30°
2026-04-25 21:37 42.04662 -122.60770 8960 ft 263 kts 19°
2026-04-25 21:38 42.06347 -122.59989 8624 ft 250 kts
2026-04-25 21:38 42.08023 -122.59587 8299 ft 240 kts
2026-04-25 21:38 42.09664 -122.59528 7986 ft 232 kts 353°
2026-04-25 21:38 42.11246 -122.59788 7684 ft 228 kts 347°
2026-04-25 21:39 42.12757 -122.60330 7383 ft 226 kts 339°
2026-04-25 21:39 42.14188 -122.61133 7083 ft 220 kts 331°
2026-04-25 21:39 42.15502 -122.62188 6796 ft 220 kts 324°
2026-04-25 21:39 42.16681 -122.63461 6506 ft 214 kts 316°
2026-04-25 21:40 42.17701 -122.64887 6224 ft 208 kts 311°
2026-04-25 21:40 42.18640 -122.66327 5946 ft 201 kts 312°
2026-04-25 21:40 42.19564 -122.67708 5693 ft 195 kts 312°
2026-04-25 21:40 42.20471 -122.69069 5428 ft 194 kts 312°
2026-04-25 21:41 42.21363 -122.70427 5176 ft 191 kts 312°
2026-04-25 21:41 42.22239 -122.71753 4913 ft 187 kts 314°
2026-04-25 21:41 42.22974 -122.73164 4689 ft 184 kts 301°
2026-04-25 21:41 42.23623 -122.74665 4442 ft 186 kts 302°
2026-04-25 21:42 42.24291 -122.76157 4194 ft 184 kts 302°
2026-04-25 21:42 42.24947 -122.77634 3944 ft 183 kts 302°
2026-04-25 21:42 42.25641 -122.79035 3759 ft 177 kts 309°
2026-04-25 21:42 42.26457 -122.80291 3514 ft 179 kts 317°
2026-04-25 21:43 42.27373 -122.81396 3277 ft 174 kts 323°
2026-04-25 21:43 42.28324 -122.82292 3051 ft 165 kts 329°
2026-04-25 21:43 42.29310 -122.83014 2836 ft 159 kts 336°
2026-04-25 21:43 42.30329 -122.83579 2646 ft 156 kts 340°
2026-04-25 21:44 42.31342 -122.84101 2437 ft 155 kts 339°
2026-04-25 21:44 42.32325 -122.84617 2216 ft 145 kts 339°
2026-04-25 21:44 42.34093 -122.85552 1876 ft 131 kts 337°
2026-04-25 21:45 42.34926 -122.85985 1709 ft 126 kts 340°
2026-04-25 21:45 42.35192 -122.86119 1644 ft 125 kts 340°
2026-04-25 21:45 42.36230 -122.86671 1402 ft 114 kts 340°
2026-04-25 21:45 42.37134 -122.87141 1323 ft 89 kts 339°
2026-04-25 21:46 42.37483 -122.87323 1316 ft 67 kts 339°
2026-04-25 21:46 42.37826 -122.87504 1312 ft 48 kts 340°
2026-04-25 21:46 42.38051 -122.87620 1308 ft 22 kts 337°
2026-04-25 21:46 42.38048 -122.87733 1309 ft 11 kts 246°
2026-04-25 21:47 42.37988 -122.87748 1311 ft 11 kts 159°
2026-04-25 21:47 42.37923 -122.87764 1312 ft 12 kts 249°
2026-04-25 21:47 42.37980 -122.87843 1309 ft 13 kts 339°
2026-04-25 21:47 42.38039 -122.87915 1307 ft 8 kts 327°
2026-04-25 21:48 42.38045 -122.87950 1306 ft 0 kts 249°